Find Starlink 3617

NORAD ID: 51780 Int'l Des: 2022-017 Owner: SPXS Country: US Constellation: starlink operational
LEOCIRCULAR

当前视图

正在加载3D地球...

About Starlink 3617

Starlink 3617 (NORAD 51780) is a starlink constellation satellite (v1.5) launched Feb 25, 2022 by SPXS of US. It operates in LEO, CIRCULAR orbit with a mass of 297.00 kg.

即将过境

Passes for default location (London). Set your location on the main map for personalized predictions.

高度历史

Loading altitude history...

两行轨道根数

1 51780U 22017N 26229.00838656 -.00000380 00000-0 -12273-6 0 9994
2 51780 53.1598 332.6321 0000726 75.8562 284.2521 15.34396643246710
Epoch: Aug 17, 2026 • Age: 16 hours

当前状态

高度 463.4 km
远地点 / 近地点 N/A
速度 7.64 km/s
星下点 2.79°N, 67.7°W
发射日期 Feb 25, 2022
运行时间 4.4 years
类型 internet

技术详情

分类 Payload
质量 297.00 kg
干质量 275.00 kg
总质量 297.00 kg
长度 0.20 m
直径 2.80 m
跨度 9.00 m
形状 Box + pan
制造商 SPXS
平台类型 Starlink
阶段状态 In Orbit
所有者/国家 SPXS/US

Most Searched